BEIDOU 19

Last updated on May 15, 2019, 3:07 a.m. UTC

1 40749U 15037B   19134.17421358 -.00000100  00000-0  00000+0 0  9990
2 40749  55.8227  29.8592 0006555 317.2852 343.3602  1.86234548 25851
UTC
Height (km)
Latitude
Longitude
Inclination
Orbital Period
UTC large
Height (km)
Speed (km/s)
/
Latitude / Longitude
Inclination (degrees)
Orbital Period (minutes)
Azimuth
Elevation
Range (km)
Doppler Factor
iOS Compass Heading
iOS Angle

Next 30 passes for location: Hong Kong

Rise time Rise Azimuth (degrees) Set time Set Azimuth (degrees) Duration Max altitude (degrees)

No matching passes for this satellites